Preview of NWS' New Version of Forecast
This preview is not operational and should not be used for support decisions.

Regional Weather Roundup (RWR)

Issued by National Weather Service (NWS)

                            
000
ASUS46 KSEW 211320
RWRWA 

WASHINGTON REGIONAL WEATHER ROUNDUP
NATIONAL WEATHER SERVICE SEATTLE WA
600 AM PDT SAT SEP 21 2019

NOTE:"FAIR" INDICATES FEW OR NO CLOUDS BELOW 12,000 FEET WITH NO 
SIGNIFICANT WEATHER AND/OR OBSTRUCTIONS TO VISIBILITY.

WAZ507-509-555>559-211400-
SEATTLE, TACOMA, EVERETT, AND VICINITY
  
CITY           SKY/WX    TMP DP  RH WIND       PRES   REMARKS
EVERETT        CLOUDY    56  54  93 S6        30.14F                  
BOEING FIELD   NOT AVBL                                               
RENTON         CLOUDY    58  53  84 S3        30.14F                  
SEATAC AIRPORT CLOUDY    58  54  86 S5        30.14F                  
JBLM-MCCHORD   PTCLDY    51  51 100 CALM      30.14F                  
PUYALLUP       CLOUDY    57  57 100 CALM      30.15F                  
BREMERTON      FOG       54  54 100 CALM      30.14F VSB 1/2          
JBLM-FT LEWIS  PTCLDY    50  50 100 CALM      30.13F FOG              
TACOMA NARROWS CLOUDY    55  55 100 S3        30.15S                  
$$
 
WAZ001-503-506-510-514-515-211400-
NORTH INTERIOR
  
CITY           SKY/WX    TMP DP  RH WIND       PRES   REMARKS
BELLINGHAM     CLOUDY    57  51  80 CALM      30.12F                  
FRIDAY HARBOR  FOG       50  48  93 CALM      30.14R VSB 1/4          
EASTSOUND      MOCLDY    54  52  94 CALM      30.12S                  
PORT ANGELES   CLEAR     53  49  86 SW10      30.15R                  
EDIZ HOOK      FAIR      54  52  92 W5        30.14R                  
PORT TOWNSEND  CLOUDY    55  55 100 CALM      30.13R                  
NAS WHIDBEY    MOCLDY    56  51  84 CALM      30.17S                  
ARLINGTON      PTCLDY    51  51 100 CALM      30.14F                  
BURLINGTON     PTCLDY    52  52 100 CALM      30.14S                  
$$
 
WAZ020-022-039-040-504-511-512-211400-
SOUTHWEST INTERIOR
  
CITY           SKY/WX    TMP DP  RH WIND       PRES   REMARKS
SHELTON        CLOUDY    56  53  90 CALM      30.12F FOG              
OLYMPIA        CLOUDY    51  50  96 CALM      30.14S FOG              
CHEHALIS       CLOUDY    52  52 100 SW3       30.15S                  
KELSO          CLOUDY    56  55  97 CALM      30.15F                  
VANCOUVER      MOCLDY    53  50  89 CALM      30.15F                  
SCAPPOOSE, OR  CLEAR     49  49 100 CALM      30.15F FOG              
PORTLAND, OR   MOCLDY    56  53  90 CALM      30.16S                  
$$
 
WAZ021-516-517-211400-
WASHINGTON COAST
  
CITY           SKY/WX    TMP DP  RH WIND       PRES   REMARKS
FORKS          CLOUDY    54  53  97 E6        30.13S                  
HOQUIAM        CLOUDY    56  56 100 CALM      30.14S                  
ASTORIA, OR    CLOUDY    59  58  96 S3        30.13S FOG              
$$
 
WAZ019-023-024-040-567>569-211400-
CASCADE MOUNTAINS AND COLUMBIA GORGE
  
CITY           SKY/WX    TMP DP  RH WIND       PRES   REMARKS
STAMPEDE PASS  FOG       46  44  93 VRB3      30.15F VSB 1/4          
TROUTDALE, OR  CLOUDY    58  54  86 CALM      30.15F                  
HOOD RIVER, OR SUNNY     50  46  87 S5        30.12F                  
THE DALLES, OR CLEAR     55  49  80 SE6       30.11R                  
$$

WAZ026-027-041>044-520-521-211400-
EAST SLOPES
  
CITY           SKY/WX    TMP DP  RH WIND       PRES   REMARKS
OMAK           PTCLDY    47  41  80 NW3       30.08R                  
WENATCHEE      CLEAR     53  44  71 W5        30.08S                  
ELLENSBURG     CLEAR     54  44  69 NW9       30.09S                  
YAKIMA         CLEAR     45  39  79 W7        30.09S                  
SUNNYSIDE ARPT SUNNY     44  43  95 N3        30.09S                  
YAKIMA TC      FAIR      46  41  82 CALM      30.08S                  
$$

WAZ028-034-035-211400-
COLUMBIA BASIN
  
CITY           SKY/WX    TMP DP  RH WIND       PRES   REMARKS
EPHRATA        CLEAR     48  41  76 CALM      30.06R                  
MOSES LAKE     PTCLDY    48  43  82 SE3       30.06F                  
PASCO          PTCLDY    50  47  89 S5        30.09S                  
RICHLAND ARPT  MOSUNNY   55  50  82 SW6       30.09                   
HERMISTON, OR  CLEAR     54  46  74 S7        30.10S                  
$$

WAZ036>038-211400-
NORTHEAST WASHINGTON
  
CITY           SKY/WX    TMP DP  RH WIND       PRES   REMARKS
SPOKANE GEIGER PTCLDY    44  42  93 S7        30.08R                  
SPOKANE FELTS  CLEAR     45  43  93 CALM      30.08S                  
FAIRCHILD AFB  PTCLDY    45  45 100 S6        30.08R                  
COEURDALENE,ID CLEAR     41  40  96 CALM      30.09S                  
DEER PARK      FOG       39  37  92 CALM      30.09R VSB 1/4          
$$

WAZ029>033-211400-
SOUTHEAST WASHINGTON
  
CITY           SKY/WX    TMP DP  RH WIND       PRES   REMARKS
PULLMAN        PTCLDY    47  43  86 CALM      30.12R                  
LEWISTON, ID   MOCLDY    55  51  86 NE6       30.09S                  
WALLA WALLA    PTCLDY    53  46  77 S7        30.11S                  
PENDLETON, OR  PTCLDY    48  44  86 S8        30.12S                  
$$